User: anonymous   Login
Location: Santa Teresa Spring
(37.2333°N, 121.7000°W)
Time: 15:47:48
(UTC-07:00)
Language:

Cosmos 1633 - Orbit

View from above orbital plane
View from above orbital plane
View from above satellite
View from above satellite

Ground track
Ground track

The orbit data is extracted from the following two-line orbital elements,

1 15592U 85020A   17266.83756914 +.00001620 +00000-0 +56508-4 0  9999
2 15592 082.5387 220.4468 0013316 180.5275 179.5953 15.28785223779088
Epoch (UTC): 23 September 2017 20:06:05
Eccentricity: 0.0013316
inclination: 82.5387°
perigee height: 470 km
apogee height: 488 km
right ascension of ascending node: 220.4468°
argument of perigee: 180.5275°
revolutions per day: 15.28785223
mean anomaly at epoch: 179.5953°
orbit number at epoch: 77908

The dashed part of the orbit path shows where the satellite is in the earth's shadow,  

DLR